Time,TemperatureF,DewpointF,PressureIn,WindDirection,WindDirectionDegrees,WindSpeedMPH,WindSpeedGustMPH,Humidity,HourlyPrecipIn,Conditions,Clouds,dailyrainin,SoftwareType,DateUTC
2013-06-06 00:01:00,72.0,72.0,29.86,SW,225,1.0,4.0,99,0.00,,,0.01,,2013-06-05 14:01:00,
2013-06-06 00:12:00,72.0,72.0,29.86,SW,225,1.0,4.0,99,0.00,,,0.01,,2013-06-05 14:12:00,
2013-06-06 00:22:00,72.0,72.0,29.86,SW,225,1.0,4.0,99,0.00,,,0.01,,2013-06-05 14:22:00,
2013-06-06 00:32:00,73.0,73.0,29.86,SW,230,2.0,4.0,99,0.00,,,0.01,,2013-06-05 14:32:00,
2013-06-06 00:42:00,73.0,73.0,29.86,SW,230,2.0,4.0,99,0.00,,,0.01,,2013-06-05 14:42:00,
2013-06-06 00:52:00,73.0,73.0,29.86,SW,230,2.0,4.0,99,0.00,,,0.01,,2013-06-05 14:52:00,
2013-06-06 01:02:00,72.0,72.0,29.85,SW,225,0.0,2.0,99,0.00,,,0.01,,2013-06-05 15:02:00,
2013-06-06 01:12:00,72.0,72.0,29.85,SW,225,0.0,2.0,99,0.00,,,0.01,,2013-06-05 15:12:00,
2013-06-06 01:22:00,72.0,72.0,29.85,SW,225,1.0,2.0,99,0.00,,,0.01,,2013-06-05 15:22:00,
2013-06-06 01:33:00,73.0,73.0,29.85,SW,230,1.0,3.0,99,0.00,,,0.01,,2013-06-05 15:33:00,
2013-06-06 01:42:00,73.0,73.0,29.85,SW,230,1.0,3.0,99,0.00,,,0.01,,2013-06-05 15:42:00,
2013-06-06 01:53:00,73.0,73.0,29.85,WSW,240,0.0,3.0,99,0.00,,,0.01,,2013-06-05 15:53:00,
2013-06-06 02:03:00,74.0,74.0,29.84,SW,231,0.0,2.0,99,0.00,,,0.01,,2013-06-05 16:03:00,
2013-06-06 02:12:00,74.0,74.0,29.84,SW,231,0.0,2.0,99,0.00,,,0.01,,2013-06-05 16:12:00,
2013-06-06 02:22:00,74.0,74.0,29.82,SW,225,1.0,2.0,99,0.00,,,0.01,,2013-06-05 16:22:00,
2013-06-06 02:32:00,73.0,73.0,29.83,SW,235,2.0,5.0,99,0.00,,,0.01,,2013-06-05 16:32:00,
2013-06-06 02:42:00,73.0,73.0,29.83,SW,235,2.0,5.0,99,0.00,,,0.01,,2013-06-05 16:42:00,
2013-06-06 02:53:00,73.0,73.0,29.83,SW,235,2.0,5.0,99,0.00,,,0.01,,2013-06-05 16:53:00,
2013-06-06 03:02:00,72.0,72.0,29.83,SW,225,0.0,2.0,99,0.00,,,0.01,,2013-06-05 17:02:00,
2013-06-06 03:12:00,72.0,72.0,29.83,SW,225,0.0,2.0,99,0.00,,,0.01,,2013-06-05 17:12:00,
2013-06-06 03:22:00,72.0,72.0,29.82,SW,225,0.0,2.0,99,0.00,,,0.01,,2013-06-05 17:22:00,
2013-06-06 03:32:00,72.0,72.0,29.81,SW,219,0.0,3.0,99,0.00,,,0.01,,2013-06-05 17:32:00,
2013-06-06 03:42:00,72.0,72.0,29.81,SW,219,0.0,3.0,99,0.00,,,0.01,,2013-06-05 17:42:00,
2013-06-06 03:52:00,72.0,72.0,29.81,SW,219,0.0,3.0,99,0.00,,,0.01,,2013-06-05 17:52:00,
2013-06-06 04:02:00,72.0,72.0,29.81,SW,219,0.0,3.0,99,0.00,,,0.01,,2013-06-05 18:02:00,
2013-06-06 04:22:00,72.0,72.0,29.82,SW,225,0.0,2.0,99,0.00,,,0.01,,2013-06-05 18:22:00,
2013-06-06 04:32:00,73.0,73.0,29.83,SW,225,1.0,2.0,99,0.00,,,0.01,,2013-06-05 18:32:00,
2013-06-06 04:42:00,73.0,73.0,29.83,SW,225,1.0,2.0,99,0.00,,,0.01,,2013-06-05 18:42:00,
2013-06-06 04:52:00,73.0,73.0,29.83,SW,225,1.0,2.0,99,0.00,,,0.01,,2013-06-05 18:52:00,
2013-06-06 05:02:00,73.0,73.0,29.83,SW,225,1.0,2.0,99,0.00,,,0.01,,2013-06-05 19:02:00,
2013-06-06 05:12:00,73.0,73.0,29.83,SW,225,1.0,2.0,99,0.00,,,0.01,,2013-06-05 19:12:00,
2013-06-06 05:23:00,72.0,72.0,29.82,SW,231,0.0,2.0,99,0.00,,,0.01,,2013-06-05 19:23:00,
2013-06-06 05:32:00,72.0,72.0,29.83,SW,225,1.0,2.0,99,0.00,,,0.01,,2013-06-05 19:32:00,
2013-06-06 05:42:00,72.0,72.0,29.83,SW,225,1.0,2.0,99,0.00,,,0.01,,2013-06-05 19:42:00,
2013-06-06 05:52:00,71.0,71.0,29.83,SW,228,0.0,2.0,99,0.00,,,0.01,,2013-06-05 19:52:00,
2013-06-06 06:02:00,71.0,71.0,29.84,SW,225,0.0,2.0,99,0.00,,,0.01,,2013-06-05 20:02:00,
2013-06-06 06:12:00,71.0,71.0,29.84,SW,225,0.0,2.0,99,0.00,,,0.01,,2013-06-05 20:12:00,
2013-06-06 06:22:00,71.0,71.0,29.84,SW,225,0.0,2.0,99,0.00,,,0.01,,2013-06-05 20:22:00,
2013-06-06 06:32:00,71.0,71.0,29.85,WSW,252,0.0,4.0,99,0.00,,,0.01,,2013-06-05 20:32:00,
2013-06-06 06:42:00,71.0,71.0,29.85,WSW,252,0.0,4.0,99,0.00,,,0.01,,2013-06-05 20:42:00,
2013-06-06 06:52:00,71.0,71.0,29.85,WSW,252,0.0,4.0,99,0.00,,,0.01,,2013-06-05 20:52:00,
2013-06-06 07:02:00,72.0,72.0,29.85,SW,225,0.0,3.0,99,0.00,,,0.01,,2013-06-05 21:02:00,
2013-06-06 07:11:00,72.0,72.0,29.85,SW,225,0.0,3.0,99,0.00,,,0.01,,2013-06-05 21:11:00,
2013-06-06 07:22:00,72.0,72.0,29.85,SW,225,0.0,3.0,99,0.00,,,0.01,,2013-06-05 21:22:00,
2013-06-06 07:33:00,72.0,72.0,29.86,SW,231,1.0,3.0,99,0.00,,,0.01,,2013-06-05 21:33:00,
2013-06-06 07:43:00,72.0,72.0,29.86,SW,231,1.0,3.0,99,0.00,,,0.01,,2013-06-05 21:43:00,
2013-06-06 07:53:00,72.0,72.0,29.86,SW,231,1.0,3.0,99,0.00,,,0.01,,2013-06-05 21:53:00,
2013-06-06 08:02:00,71.0,71.0,29.86,SW,235,1.0,4.0,99,0.02,,,0.04,,2013-06-05 22:02:00,
2013-06-06 08:12:00,71.0,71.0,29.86,SW,235,1.0,4.0,99,0.02,,,0.04,,2013-06-05 22:12:00,
2013-06-06 08:22:00,71.0,71.0,29.86,SW,235,1.0,4.0,99,0.02,,,0.04,,2013-06-05 22:22:00,
2013-06-06 08:32:00,71.0,71.0,29.86,SW,235,1.0,4.0,99,0.02,,,0.04,,2013-06-05 22:32:00,
2013-06-06 08:42:00,72.0,72.0,29.88,East,84,1.0,3.0,99,0.01,,,0.05,,2013-06-05 22:42:00,
2013-06-06 08:52:00,72.0,72.0,29.88,East,84,1.0,3.0,99,0.01,,,0.05,,2013-06-05 22:52:00,
2013-06-06 09:02:00,71.0,71.0,29.89,SSW,205,0.0,2.0,99,0.08,,,0.12,,2013-06-05 23:02:00,
2013-06-06 09:12:00,71.0,71.0,29.89,SSW,205,0.0,2.0,99,0.08,,,0.12,,2013-06-05 23:12:00,
2013-06-06 09:22:00,72.0,72.0,29.89,SW,225,0.0,3.0,99,0.08,,,0.12,,2013-06-05 23:22:00,
2013-06-06 09:32:00,75.0,75.0,29.89,SW,227,1.0,4.0,99,0.08,,,0.12,,2013-06-05 23:32:00,
2013-06-06 09:42:00,75.0,75.0,29.89,SW,227,1.0,4.0,99,0.08,,,0.12,,2013-06-05 23:42:00,
2013-06-06 09:52:00,75.0,75.0,29.89,SW,227,1.0,4.0,99,0.08,,,0.12,,2013-06-05 23:52:00,
2013-06-06 10:02:00,81.0,81.0,29.88,SW,235,1.0,3.0,99,0.01,,,0.13,,2013-06-06 00:02:00,
2013-06-06 10:12:00,81.0,81.0,29.88,SW,235,1.0,3.0,99,0.01,,,0.13,,2013-06-06 00:12:00,
2013-06-06 10:22:00,81.0,81.0,29.88,SW,235,1.0,3.0,99,0.01,,,0.13,,2013-06-06 00:22:00,
2013-06-06 10:32:00,84.0,83.0,29.88,SW,231,1.0,7.0,96,0.01,,,0.13,,2013-06-06 00:32:00,
2013-06-06 10:42:00,84.0,83.0,29.88,SW,231,1.0,7.0,96,0.01,,,0.13,,2013-06-06 00:42:00,
2013-06-06 10:52:00,84.0,83.0,29.88,SW,231,1.0,7.0,96,0.01,,,0.13,,2013-06-06 00:52:00,
2013-06-06 11:02:00,85.0,80.0,29.87,SW,230,1.0,4.0,84,0.00,,,0.13,,2013-06-06 01:02:00,
2013-06-06 11:12:00,85.0,80.0,29.87,SW,230,1.0,4.0,84,0.00,,,0.13,,2013-06-06 01:12:00,
2013-06-06 11:22:00,86.0,79.0,29.87,SSW,212,2.0,6.0,81,0.00,,,0.13,,2013-06-06 01:22:00,
2013-06-06 11:32:00,88.0,80.0,29.87,SW,220,1.0,6.0,78,0.00,,,0.13,,2013-06-06 01:32:00,
2013-06-06 11:42:00,88.0,80.0,29.87,SW,220,1.0,6.0,78,0.00,,,0.13,,2013-06-06 01:42:00,
2013-06-06 11:52:00,90.0,78.0,29.85,SW,227,1.0,6.0,67,0.00,,,0.13,,2013-06-06 01:52:00,
2013-06-06 12:01:00,89.0,77.0,29.85,WSW,254,1.0,8.0,69,0.00,,,0.13,,2013-06-06 02:01:00,
2013-06-06 12:12:00,89.0,77.0,29.85,WSW,254,1.0,8.0,69,0.00,,,0.13,,2013-06-06 02:12:00,
2013-06-06 12:22:00,89.0,77.0,29.85,WSW,254,1.0,8.0,69,0.00,,,0.13,,2013-06-06 02:22:00,
2013-06-06 12:32:00,88.0,77.0,29.84,SW,230,2.0,8.0,71,0.00,,,0.13,,2013-06-06 02:32:00,
2013-06-06 12:42:00,88.0,77.0,29.84,SW,230,2.0,8.0,71,0.00,,,0.13,,2013-06-06 02:42:00,
2013-06-06 12:52:00,88.0,77.0,29.84,SW,230,2.0,8.0,71,0.00,,,0.13,,2013-06-06 02:52:00,
2013-06-06 13:02:00,84.0,78.0,29.83,SW,229,3.0,4.0,81,0.00,,,0.13,,2013-06-06 03:02:00,
2013-06-06 13:12:00,84.0,78.0,29.83,SW,229,3.0,4.0,81,0.00,,,0.13,,2013-06-06 03:12:00,
2013-06-06 13:22:00,86.0,78.0,29.83,SW,235,2.0,8.0,76,0.00,,,0.13,,2013-06-06 03:22:00,
2013-06-06 13:33:00,80.0,78.0,29.84,SW,228,2.0,8.0,94,0.00,,,0.13,,2013-06-06 03:33:00,
2013-06-06 13:43:00,80.0,78.0,29.84,SW,228,2.0,8.0,94,0.00,,,0.13,,2013-06-06 03:43:00,
2013-06-06 13:52:00,79.0,78.0,29.83,SW,223,1.0,8.0,97,0.00,,,0.13,,2013-06-06 03:52:00,
2013-06-06 14:02:00,80.0,77.0,29.82,WSW,244,2.0,4.0,92,0.00,,,0.13,,2013-06-06 04:02:00,
2013-06-06 14:13:00,80.0,77.0,29.82,WSW,244,2.0,4.0,92,0.00,,,0.13,,2013-06-06 04:13:00,
2013-06-06 14:23:00,80.0,77.0,29.82,WSW,244,2.0,4.0,92,0.00,,,0.13,,2013-06-06 04:23:00,
2013-06-06 14:33:00,80.0,77.0,29.82,WSW,244,2.0,4.0,92,0.00,,,0.13,,2013-06-06 04:33:00,
2013-06-06 14:42:00,80.0,77.0,29.82,WSW,244,2.0,4.0,92,0.00,,,0.13,,2013-06-06 04:42:00,
2013-06-06 14:53:00,84.0,79.0,29.81,SW,229,3.0,7.0,84,0.00,,,0.13,,2013-06-06 04:53:00,
2013-06-06 15:02:00,77.0,77.0,29.82,SW,225,1.0,4.0,99,0.00,,,0.13,,2013-06-06 05:02:00,
2013-06-06 15:12:00,77.0,77.0,29.82,SW,225,1.0,4.0,99,0.00,,,0.13,,2013-06-06 05:12:00,
2013-06-06 15:22:00,77.0,77.0,29.81,SW,232,1.0,5.0,99,0.00,,,0.13,,2013-06-06 05:22:00,
2013-06-06 15:32:00,78.0,78.0,29.82,SW,225,1.0,5.0,99,0.00,,,0.13,,2013-06-06 05:32:00,
2013-06-06 15:42:00,78.0,78.0,29.82,SW,225,1.0,5.0,99,0.00,,,0.13,,2013-06-06 05:42:00,
2013-06-06 15:52:00,78.0,78.0,29.82,SW,225,1.0,5.0,99,0.00,,,0.13,,2013-06-06 05:52:00,
2013-06-06 16:02:00,78.0,78.0,29.82,SW,225,1.0,5.0,99,0.00,,,0.13,,2013-06-06 06:02:00,
2013-06-06 16:22:00,79.0,79.0,29.81,WSW,237,1.0,4.0,99,0.00,,,0.13,,2013-06-06 06:22:00,
2013-06-06 16:32:00,79.0,79.0,29.81,WSW,237,1.0,4.0,99,0.00,,,0.13,,2013-06-06 06:32:00,
2013-06-06 16:42:00,79.0,79.0,29.81,WSW,237,1.0,4.0,99,0.00,,,0.13,,2013-06-06 06:42:00,
2013-06-06 16:52:00,77.0,77.0,29.82,SW,233,1.0,5.0,99,0.00,,,0.13,,2013-06-06 06:52:00,
2013-06-06 17:02:00,77.0,77.0,29.82,SW,233,1.0,5.0,99,0.00,,,0.13,,2013-06-06 07:02:00,
2013-06-06 17:12:00,77.0,77.0,29.82,SW,233,1.0,5.0,99,0.00,,,0.13,,2013-06-06 07:12:00,
2013-06-06 17:22:00,76.0,76.0,29.83,SW,234,1.0,4.0,99,0.00,,,0.13,,2013-06-06 07:22:00,
2013-06-06 17:32:00,76.0,76.0,29.83,SW,234,1.0,4.0,99,0.00,,,0.13,,2013-06-06 07:32:00,
2013-06-06 17:42:00,76.0,76.0,29.83,SW,234,1.0,4.0,99,0.00,,,0.13,,2013-06-06 07:42:00,
2013-06-06 17:52:00,76.0,76.0,29.83,SW,234,1.0,4.0,99,0.00,,,0.13,,2013-06-06 07:52:00,
2013-06-06 18:02:00,74.0,74.0,29.84,SW,230,1.0,4.0,99,0.00,,,0.13,,2013-06-06 08:02:00,
2013-06-06 18:12:00,74.0,74.0,29.84,SW,230,1.0,4.0,99,0.00,,,0.13,,2013-06-06 08:12:00,
2013-06-06 18:22:00,74.0,74.0,29.84,SW,230,1.0,4.0,99,0.00,,,0.13,,2013-06-06 08:22:00,
2013-06-06 18:32:00,72.0,72.0,29.85,SW,225,1.0,4.0,99,0.00,,,0.13,,2013-06-06 08:32:00,
2013-06-06 18:42:00,72.0,72.0,29.85,SW,227,1.0,4.0,99,0.00,,,0.13,,2013-06-06 08:42:00,
2013-06-06 18:52:00,72.0,72.0,29.85,SW,227,1.0,4.0,99,0.00,,,0.13,,2013-06-06 08:52:00,
2013-06-06 19:02:00,72.0,72.0,29.86,SW,225,1.0,3.0,99,0.00,,,0.12,,2013-06-06 09:02:00,
2013-06-06 19:12:00,72.0,72.0,29.86,SW,225,1.0,3.0,99,0.00,,,0.12,,2013-06-06 09:12:00,
2013-06-06 19:22:00,72.0,72.0,29.86,SW,225,1.0,3.0,99,0.00,,,0.12,,2013-06-06 09:22:00,
2013-06-06 19:33:00,72.0,72.0,29.86,SW,228,2.0,4.0,99,0.00,,,0.12,,2013-06-06 09:33:00,
2013-06-06 19:43:00,72.0,72.0,29.86,SW,228,2.0,4.0,99,0.00,,,0.12,,2013-06-06 09:43:00,
2013-06-06 19:53:00,71.0,71.0,29.87,SW,225,0.0,3.0,99,0.00,,,0.12,,2013-06-06 09:53:00,
2013-06-06 20:02:00,71.0,71.0,29.87,SW,225,0.0,2.0,99,0.00,,,0.12,,2013-06-06 10:02:00,
2013-06-06 20:12:00,71.0,71.0,29.87,SW,225,0.0,2.0,99,0.00,,,0.12,,2013-06-06 10:12:00,
2013-06-06 20:22:00,71.0,71.0,29.88,SW,225,0.0,2.0,99,0.00,,,0.12,,2013-06-06 10:22:00,
2013-06-06 20:33:00,72.0,72.0,29.88,SW,225,2.0,4.0,99,0.00,,,0.12,,2013-06-06 10:33:00,
2013-06-06 20:42:00,72.0,72.0,29.88,SW,225,2.0,4.0,99,0.00,,,0.12,,2013-06-06 10:42:00,
2013-06-06 20:52:00,71.0,71.0,29.88,SW,225,1.0,3.0,99,0.00,,,0.12,,2013-06-06 10:52:00,
2013-06-06 21:02:00,72.0,72.0,29.88,SW,236,0.0,4.0,99,0.00,,,0.12,,2013-06-06 11:02:00,
2013-06-06 21:12:00,72.0,72.0,29.88,SW,236,0.0,4.0,99,0.00,,,0.12,,2013-06-06 11:12:00,
2013-06-06 21:22:00,72.0,72.0,29.89,SW,236,0.0,3.0,99,0.00,,,0.12,,2013-06-06 11:22:00,
2013-06-06 21:32:00,72.0,72.0,29.88,SW,225,0.0,2.0,99,0.00,,,0.12,,2013-06-06 11:32:00,
2013-06-06 21:42:00,72.0,72.0,29.88,SW,225,0.0,2.0,99,0.00,,,0.12,,2013-06-06 11:42:00,
2013-06-06 21:52:00,72.0,72.0,29.88,SW,225,0.0,2.0,99,0.00,,,0.12,,2013-06-06 11:52:00,
2013-06-06 22:02:00,72.0,72.0,29.88,SW,225,2.0,6.0,99,0.00,,,0.12,,2013-06-06 12:02:00,
2013-06-06 22:12:00,72.0,72.0,29.88,SW,225,2.0,6.0,99,0.00,,,0.12,,2013-06-06 12:12:00,
2013-06-06 22:22:00,72.0,72.0,29.88,SW,225,0.0,2.0,99,0.00,,,0.12,,2013-06-06 12:22:00,
2013-06-06 22:32:00,72.0,72.0,29.88,SW,226,1.0,4.0,99,0.00,,,0.12,,2013-06-06 12:32:00,
2013-06-06 22:42:00,73.0,73.0,29.88,SW,234,1.0,4.0,99,0.00,,,0.12,,2013-06-06 12:42:00,
2013-06-06 22:52:00,73.0,73.0,29.88,SW,234,1.0,4.0,99,0.00,,,0.12,,2013-06-06 12:52:00,
2013-06-06 23:02:00,73.0,73.0,29.88,SW,236,2.0,3.0,99,0.00,,,0.12,,2013-06-06 13:02:00,
2013-06-06 23:12:00,73.0,73.0,29.88,SW,236,2.0,3.0,99,0.00,,,0.12,,2013-06-06 13:12:00,
2013-06-06 23:22:00,73.0,73.0,29.87,SW,225,1.0,3.0,99,0.00,,,0.12,,2013-06-06 13:22:00,
2013-06-06 23:32:00,73.0,73.0,29.87,WSW,240,1.0,4.0,99,0.00,,,0.12,,2013-06-06 13:32:00,
2013-06-06 23:42:00,73.0,73.0,29.87,WSW,240,1.0,4.0,99,0.00,,,0.12,,2013-06-06 13:42:00,
2013-06-06 23:52:00,72.0,72.0,29.86,SW,225,1.0,3.0,99,0.00,,,0.12,,2013-06-06 13:52:00,